Starlink 31298

operational
NORAD ID: 59167 Int'l Des: 2024-044 Owner: SPXS Country: US Constellation: starlink
LEOCIRCULAR

关于 Starlink 31298

正在加载描述...

实时位置

正在加载3D地球...

即将过境

高度历史

Altitude vs Time

uPlot chart will show altitude changes over time

两行轨道根数

1 59167U 24044R 25351.87728307 .00001087 00000-0 49003-4 0 9996
2 59167 43.0000 209.0450 0001373 271.5233 88.5461 15.27584215101053
Epoch: Dec 17, 2025 • Age: 10 hours

当前状态

高度 483.1 km
速度 7.63 km/s
星下点 -1.75°S, 167.64°W
发射日期 Mar 4, 2024
运行时间 1.7 years
类型 internet

技术详情

分类 Payload
质量 730.00 kg
干质量 700.00 kg
总质量 730.00 kg
长度 0.30 m
直径 4.10 m
跨度 29.00 m
形状 Box + pan
制造商 SPXS
平台类型 Starlink V2M
阶段状态 In Orbit
所有者/国家 SPXS/US

大型星座

Loading constellations...